Time,TemperatureF,DewpointF,PressureIn,WindDirection,WindDirectionDegrees,WindSpeedMPH,WindSpeedGustMPH,Humidity,HourlyPrecipIn,Conditions,Clouds,dailyrainin,SoftwareType,DateUTC
2013-10-11 00:02:00,51.8,50.0,30.11,ENE,69,0.0,-999.0,92,-99.99,,,0.00,weatherlink.com 1.10,2013-10-11 04:02:00,
2013-10-11 00:18:00,51.8,50.0,30.11,ENE,69,0.0,-999.0,92,-99.99,,,0.00,weatherlink.com 1.10,2013-10-11 04:18:00,
2013-10-11 00:32:00,51.0,49.0,30.10,ENE,69,0.0,-999.0,92,-99.99,,,0.00,weatherlink.com 1.10,2013-10-11 04:32:00,
2013-10-11 00:47:00,50.5,48.0,30.10,ENE,69,0.0,-999.0,92,-99.99,,,0.00,weatherlink.com 1.10,2013-10-11 04:47:00,
2013-10-11 01:02:00,50.3,48.0,30.10,ENE,69,0.0,-999.0,93,-99.99,,,0.00,weatherlink.com 1.10,2013-10-11 05:02:00,
2013-10-11 01:18:00,50.3,48.0,30.10,ENE,69,0.0,-999.0,93,-99.99,,,0.00,weatherlink.com 1.10,2013-10-11 05:18:00,
2013-10-11 01:32:00,50.0,48.0,30.10,ENE,69,0.0,-999.0,93,-99.99,,,0.00,weatherlink.com 1.10,2013-10-11 05:32:00,
2013-10-11 01:47:00,49.8,48.0,30.10,ENE,69,0.0,-999.0,93,-99.99,,,0.00,weatherlink.com 1.10,2013-10-11 05:47:00,
2013-10-11 02:02:00,49.5,48.0,30.10,ENE,69,0.0,-999.0,93,-99.99,,,0.00,weatherlink.com 1.10,2013-10-11 06:02:00,
2013-10-11 02:19:00,49.5,48.0,30.10,ENE,69,0.0,-999.0,93,-99.99,,,0.00,weatherlink.com 1.10,2013-10-11 06:19:00,
2013-10-11 02:33:00,49.2,47.0,30.10,ENE,69,0.0,-999.0,93,-99.99,,,0.00,weatherlink.com 1.10,2013-10-11 06:33:00,
2013-10-11 02:48:00,48.9,47.0,30.10,ENE,69,0.0,-999.0,93,-99.99,,,0.00,weatherlink.com 1.10,2013-10-11 06:48:00,
2013-10-11 03:03:00,48.5,47.0,30.10,ENE,69,0.0,-999.0,93,-99.99,,,0.00,weatherlink.com 1.10,2013-10-11 07:03:00,
2013-10-11 03:19:00,48.4,47.0,30.09,ENE,69,0.0,-999.0,93,-99.99,,,0.00,weatherlink.com 1.10,2013-10-11 07:19:00,
2013-10-11 03:33:00,48.1,46.0,30.09,ENE,69,0.0,-999.0,93,-99.99,,,0.00,weatherlink.com 1.10,2013-10-11 07:33:00,
2013-10-11 03:48:00,47.8,46.0,30.09,ENE,69,0.0,-999.0,94,-99.99,,,0.00,weatherlink.com 1.10,2013-10-11 07:48:00,
2013-10-11 04:03:00,47.3,45.0,30.09,ENE,69,0.0,-999.0,93,-99.99,,,0.00,weatherlink.com 1.10,2013-10-11 08:03:00,
2013-10-11 04:20:00,47.2,45.0,30.09,ENE,69,0.0,-999.0,93,-99.99,,,0.00,weatherlink.com 1.10,2013-10-11 08:20:00,
2013-10-11 04:33:00,46.5,45.0,30.09,ENE,69,0.0,-999.0,94,-99.99,,,0.00,weatherlink.com 1.10,2013-10-11 08:33:00,
2013-10-11 04:48:00,46.3,45.0,30.09,ENE,69,0.0,-999.0,94,-99.99,,,0.00,weatherlink.com 1.10,2013-10-11 08:48:00,
2013-10-11 05:03:00,46.3,45.0,30.09,ENE,69,0.0,-999.0,94,-99.99,,,0.00,weatherlink.com 1.10,2013-10-11 09:03:00,
2013-10-11 05:19:00,46.3,45.0,30.09,ENE,69,0.0,-999.0,94,-99.99,,,0.00,weatherlink.com 1.10,2013-10-11 09:19:00,
2013-10-11 05:33:00,46.6,45.0,30.10,ENE,69,0.0,-999.0,94,-99.99,,,0.00,weatherlink.com 1.10,2013-10-11 09:33:00,
2013-10-11 05:48:00,46.7,45.0,30.10,ENE,69,0.0,-999.0,94,-99.99,,,0.00,weatherlink.com 1.10,2013-10-11 09:48:00,
2013-10-11 06:03:00,46.1,45.0,30.10,ENE,69,0.0,-999.0,94,-99.99,,,0.00,weatherlink.com 1.10,2013-10-11 10:03:00,
2013-10-11 06:18:00,46.0,44.0,30.10,ENE,69,0.0,-999.0,94,-99.99,,,0.00,weatherlink.com 1.10,2013-10-11 10:18:00,
2013-10-11 06:32:00,45.2,44.0,30.10,ENE,69,0.0,-999.0,94,-99.99,,,0.00,weatherlink.com 1.10,2013-10-11 10:32:00,
2013-10-11 06:47:00,45.5,44.0,30.11,ENE,69,0.0,-999.0,94,-99.99,,,0.00,weatherlink.com 1.10,2013-10-11 10:47:00,
2013-10-11 07:02:00,45.4,44.0,30.11,ENE,69,0.0,-999.0,94,-99.99,,,0.00,weatherlink.com 1.10,2013-10-11 11:02:00,
2013-10-11 07:18:00,45.3,44.0,30.11,ENE,69,0.0,-999.0,94,-99.99,,,0.00,weatherlink.com 1.10,2013-10-11 11:18:00,
2013-10-11 07:32:00,45.0,43.0,30.12,ENE,69,0.0,-999.0,94,-99.99,,,0.00,weatherlink.com 1.10,2013-10-11 11:32:00,
2013-10-11 07:47:00,44.9,43.0,30.12,ENE,69,0.0,-999.0,94,-99.99,,,0.00,weatherlink.com 1.10,2013-10-11 11:47:00,
2013-10-11 08:02:00,44.4,43.0,30.12,ENE,69,0.0,-999.0,94,-99.99,,,0.00,weatherlink.com 1.10,2013-10-11 12:02:00,
2013-10-11 08:18:00,44.4,43.0,30.12,ENE,69,0.0,-999.0,94,-99.99,,,0.00,weatherlink.com 1.10,2013-10-11 12:18:00,
2013-10-11 08:32:00,45.3,44.0,30.13,ENE,69,0.0,-999.0,95,-99.99,,,0.00,weatherlink.com 1.10,2013-10-11 12:32:00,
2013-10-11 08:47:00,47.8,47.0,30.13,ENE,69,0.0,-999.0,95,-99.99,,,0.00,weatherlink.com 1.10,2013-10-11 12:47:00,
2013-10-11 09:03:00,50.7,50.0,30.13,ENE,65,0.0,-999.0,96,-99.99,,,0.00,weatherlink.com 1.10,2013-10-11 13:03:00,
2013-10-11 09:19:00,51.1,50.0,30.13,ENE,65,0.0,-999.0,96,-99.99,,,0.00,weatherlink.com 1.10,2013-10-11 13:19:00,
2013-10-11 09:33:00,54.6,54.0,30.14,ENE,65,0.0,-999.0,96,-99.99,,,0.00,weatherlink.com 1.10,2013-10-11 13:33:00,
2013-10-11 09:48:00,55.4,54.0,30.14,ENE,65,0.0,-999.0,94,-99.99,,,0.00,weatherlink.com 1.10,2013-10-11 13:48:00,
2013-10-11 10:03:00,56.6,53.0,30.14,ENE,65,1.0,-999.0,88,-99.99,,,0.00,weatherlink.com 1.10,2013-10-11 14:03:00,
2013-10-11 10:19:00,57.0,54.0,30.14,ENE,65,0.0,-999.0,89,-99.99,,,0.00,weatherlink.com 1.10,2013-10-11 14:19:00,
2013-10-11 10:33:00,60.8,55.0,30.14,ENE,65,0.0,-999.0,80,-99.99,,,0.00,weatherlink.com 1.10,2013-10-11 14:33:00,
2013-10-11 10:48:00,63.4,56.0,30.14,WSW,245,0.0,-999.0,76,-99.99,,,0.00,weatherlink.com 1.10,2013-10-11 14:48:00,
2013-10-11 11:03:00,65.2,54.0,30.13,WSW,245,0.0,-999.0,68,-99.99,,,0.00,weatherlink.com 1.10,2013-10-11 15:03:00,
2013-10-11 11:19:00,65.7,55.0,30.13,WSW,245,0.0,-999.0,68,-99.99,,,0.00,weatherlink.com 1.10,2013-10-11 15:19:00,
2013-10-11 11:33:00,69.4,54.0,30.13,WSW,245,0.0,-999.0,59,-99.99,,,0.00,weatherlink.com 1.10,2013-10-11 15:33:00,
2013-10-11 11:48:00,69.6,54.0,30.13,WSW,245,3.0,-999.0,57,-99.99,,,0.00,weatherlink.com 1.10,2013-10-11 15:48:00,
2013-10-11 12:03:00,70.8,53.0,30.13,NNE,28,2.0,-999.0,54,-99.99,,,0.00,weatherlink.com 1.10,2013-10-11 16:03:00,
2013-10-11 12:19:00,71.0,53.0,30.12,NNE,29,2.0,-999.0,54,-99.99,,,0.00,weatherlink.com 1.10,2013-10-11 16:19:00,
2013-10-11 12:33:00,72.8,52.0,30.12,NW,317,8.0,-999.0,49,-99.99,,,0.00,weatherlink.com 1.10,2013-10-11 16:33:00,
2013-10-11 12:48:00,72.9,53.0,30.11,NW,323,0.0,-999.0,49,-99.99,,,0.00,weatherlink.com 1.10,2013-10-11 16:48:00,
2013-10-11 13:03:00,73.1,52.0,30.11,NW,314,3.0,-999.0,48,-99.99,,,0.00,weatherlink.com 1.10,2013-10-11 17:03:00,
2013-10-11 13:19:00,73.1,52.0,30.11,NW,313,0.0,-999.0,47,-99.99,,,0.00,weatherlink.com 1.10,2013-10-11 17:19:00,
2013-10-11 13:33:00,75.0,53.0,30.10,East,92,6.0,-999.0,47,-99.99,,,0.00,weatherlink.com 1.10,2013-10-11 17:33:00,
2013-10-11 13:48:00,75.2,54.0,30.09,ENE,57,5.0,-999.0,47,-99.99,,,0.00,weatherlink.com 1.10,2013-10-11 17:48:00,
2013-10-11 14:03:00,75.1,54.0,30.08,NW,312,10.0,-999.0,48,-99.99,,,0.00,weatherlink.com 1.10,2013-10-11 18:03:00,
2013-10-11 14:19:00,75.0,54.0,30.08,NNW,340,5.0,-999.0,49,-99.99,,,0.00,weatherlink.com 1.10,2013-10-11 18:19:00,
2013-10-11 14:33:00,76.2,56.0,30.07,NW,325,3.0,-999.0,50,-99.99,,,0.00,weatherlink.com 1.10,2013-10-11 18:33:00,
2013-10-11 14:48:00,76.2,56.0,30.06,NW,318,5.0,-999.0,49,-99.99,,,0.00,weatherlink.com 1.10,2013-10-11 18:48:00,
2013-10-11 15:03:00,76.3,56.0,30.05,NNW,328,3.0,-999.0,50,-99.99,,,0.00,weatherlink.com 1.10,2013-10-11 19:03:00,
2013-10-11 15:19:00,76.6,56.0,30.06,WNW,300,7.0,-999.0,49,-99.99,,,0.00,weatherlink.com 1.10,2013-10-11 19:19:00,
2013-10-11 15:33:00,77.6,56.0,30.05,NNE,23,3.0,-999.0,47,-99.99,,,0.00,weatherlink.com 1.10,2013-10-11 19:33:00,
2013-10-11 15:48:00,77.9,55.0,30.05,NNW,340,0.0,-999.0,45,-99.99,,,0.00,weatherlink.com 1.10,2013-10-11 19:48:00,
2013-10-11 16:03:00,77.8,55.0,30.05,NW,317,8.0,-999.0,45,-99.99,,,0.00,weatherlink.com 1.10,2013-10-11 20:03:00,
2013-10-11 16:19:00,77.8,56.0,30.04,NNW,332,2.0,-999.0,47,-99.99,,,0.00,weatherlink.com 1.10,2013-10-11 20:19:00,
2013-10-11 16:33:00,78.3,56.0,30.05,NNW,327,0.0,-999.0,46,-99.99,,,0.00,weatherlink.com 1.10,2013-10-11 20:33:00,
2013-10-11 16:48:00,78.5,55.0,30.05,NNW,329,4.0,-999.0,45,-99.99,,,0.00,weatherlink.com 1.10,2013-10-11 20:48:00,
2013-10-11 17:03:00,77.7,55.0,30.05,NNW,332,0.0,-999.0,46,-99.99,,,0.00,weatherlink.com 1.10,2013-10-11 21:03:00,
2013-10-11 17:18:00,77.9,56.0,30.05,NNW,333,3.0,-999.0,47,-99.99,,,0.00,weatherlink.com 1.10,2013-10-11 21:18:00,
2013-10-11 17:33:00,77.9,56.0,30.04,NNW,337,3.0,-999.0,47,-99.99,,,0.00,weatherlink.com 1.10,2013-10-11 21:33:00,
2013-10-11 17:48:00,77.5,56.0,30.05,NNW,331,2.0,-999.0,47,-99.99,,,0.00,weatherlink.com 1.10,2013-10-11 21:48:00,
2013-10-11 18:03:00,77.2,56.0,30.05,NNW,333,4.0,-999.0,48,-99.99,,,0.00,weatherlink.com 1.10,2013-10-11 22:03:00,
2013-10-11 18:19:00,77.2,56.0,30.05,North,350,0.0,-999.0,48,-99.99,,,0.00,weatherlink.com 1.10,2013-10-11 22:19:00,
2013-10-11 18:33:00,76.2,57.0,30.05,NW,321,0.0,-999.0,51,-99.99,,,0.00,weatherlink.com 1.10,2013-10-11 22:33:00,
2013-10-11 18:48:00,75.4,58.0,30.05,NW,321,0.0,-999.0,56,-99.99,,,0.00,weatherlink.com 1.10,2013-10-11 22:48:00,
2013-10-11 19:03:00,72.2,57.0,30.05,NW,321,0.0,-999.0,60,-99.99,,,0.00,weatherlink.com 1.10,2013-10-11 23:03:00,
2013-10-11 19:20:00,71.4,57.0,30.05,NW,321,0.0,-999.0,61,-99.99,,,0.00,weatherlink.com 1.10,2013-10-11 23:20:00,
2013-10-11 19:34:00,66.5,57.0,30.05,NW,321,0.0,-999.0,71,-99.99,,,0.00,weatherlink.com 1.10,2013-10-11 23:34:00,
2013-10-11 19:49:00,64.9,56.0,30.05,NW,321,0.0,-999.0,74,-99.99,,,0.00,weatherlink.com 1.10,2013-10-11 23:49:00,
2013-10-11 20:04:00,63.6,56.0,30.06,NW,321,0.0,-999.0,77,-99.99,,,0.00,weatherlink.com 1.10,2013-10-12 00:04:00,
2013-10-11 20:19:00,63.4,56.0,30.06,NW,321,0.0,-999.0,77,-99.99,,,0.00,weatherlink.com 1.10,2013-10-12 00:19:00,
2013-10-11 20:33:00,61.9,56.0,30.06,NW,321,0.0,-999.0,81,-99.99,,,0.00,weatherlink.com 1.10,2013-10-12 00:33:00,
2013-10-11 20:48:00,61.3,56.0,30.06,NW,321,0.0,-999.0,82,-99.99,,,0.00,weatherlink.com 1.10,2013-10-12 00:48:00,
2013-10-11 21:03:00,60.5,55.0,30.06,NW,321,0.0,-999.0,83,-99.99,,,0.00,weatherlink.com 1.10,2013-10-12 01:03:00,
2013-10-11 21:19:00,60.3,55.0,30.06,NW,321,0.0,-999.0,83,-99.99,,,0.00,weatherlink.com 1.10,2013-10-12 01:19:00,
2013-10-11 21:33:00,59.0,55.0,30.07,NW,321,0.0,-999.0,86,-99.99,,,0.00,weatherlink.com 1.10,2013-10-12 01:33:00,
2013-10-11 21:48:00,58.3,55.0,30.06,NW,321,0.0,-999.0,87,-99.99,,,0.00,weatherlink.com 1.10,2013-10-12 01:48:00,
2013-10-11 22:03:00,57.8,54.0,30.06,NW,321,0.0,-999.0,88,-99.99,,,0.00,weatherlink.com 1.10,2013-10-12 02:03:00,
2013-10-11 22:19:00,57.8,55.0,30.06,NW,321,0.0,-999.0,89,-99.99,,,0.00,weatherlink.com 1.10,2013-10-12 02:19:00,
2013-10-11 22:33:00,57.2,54.0,30.06,NW,321,0.0,-999.0,90,-99.99,,,0.00,weatherlink.com 1.10,2013-10-12 02:33:00,
2013-10-11 22:48:00,56.7,54.0,30.07,NW,321,0.0,-999.0,90,-99.99,,,0.00,weatherlink.com 1.10,2013-10-12 02:48:00,
2013-10-11 23:03:00,56.4,54.0,30.06,NW,321,0.0,-999.0,91,-99.99,,,0.00,weatherlink.com 1.10,2013-10-12 03:03:00,
2013-10-11 23:19:00,56.3,54.0,30.06,NW,321,0.0,-999.0,91,-99.99,,,0.00,weatherlink.com 1.10,2013-10-12 03:19:00,
2013-10-11 23:33:00,55.7,54.0,30.06,NW,321,0.0,-999.0,92,-99.99,,,0.00,weatherlink.com 1.10,2013-10-12 03:33:00,
2013-10-11 23:48:00,55.3,53.0,30.06,NW,321,0.0,-999.0,91,-99.99,,,0.00,weatherlink.com 1.10,2013-10-12 03:48:00,